{"data":{"norad_id":63323,"intl_designator":"2025-057S","name":"STARLINK-33607","alt_names":[],"object_type":"PAYLOAD","status":"ACTIVE","operator":null,"country":"US","launch_date":"2025-03-18","launch_site_code":"AFETR","launch_vehicle":null,"mission":null,"orbit_class":"UNKNOWN","rcs_meters":null,"size_class":null,"mass_kg":null,"dimensions":null,"purposes":["comms"],"wikipedia_slug":null,"has_3d_model":false,"image_url":null,"decayed_at":null,"tle_current":{"epoch":"2026-05-24T18:31:41.505888Z","epoch_age_seconds":85016,"freshness":"FRESH","line1":"1 63323U 25057S   26144.77200817  .00018403  00000+0  67622-3 0  9996","line2":"2 63323  42.9993 321.1483 0001219 273.1141  86.9571 15.27598497 67375","mean_motion":15.27598497,"eccentricity":0.0001219,"inclination_deg":42.9993,"raan_deg":321.1483,"arg_perigee_deg":273.1141,"mean_anomaly_deg":86.9571,"bstar":0.00067622,"rev_number":6737,"period_min":94.265607280183,"perigee_km":482.15733809273,"apogee_km":483.83008175981,"semimajor_km":6861.1307099263,"source":"CELESTRAK","updated_at":"2026-05-25T13:38:19.959356Z"}}}